Wind_Speed
42 47 51 53 57 62 66 71 73 73 71 67 62 58 54 50 49 48 46 45 43 40 38 36 33 32 32 32 34 35 36 37 37 37 36 35 33 30 28 25 22 20 20 22
44 49 54 56 61 65 69 72 74 73 69 65 57 52 49 47 47 46 44 43 41 39 38 36 35 34 34 35 36 38 39 39 39 38 36 34 32 30 27 25 22 20 19 21
47 52 57 59 63 66 70 74 76 73 69 61 52 48 47 45 44 43 42 41 41 39 39 38 37 37 38 38 40 41 41 41 41 39 37 35 32 30 28 25 22 20 20 21
51 55 58 62 64 68 72 75 74 69 62 54 48 47 45 43 42 41 41 41 41 41 41 41 41 42 42 43 43 44 43 43 42 40 38 35 33 31 29 26 24 22 22 22
53 56 59 62 66 70 74 74 72 65 56 48 44 43 43 42 41 42 42 43 43 44 44 45 46 47 47 47 47 47 46 45 43 41 39 36 33 31 30 29 27 26 25 24
55 58 60 64 66 71 75 72 68 59 52 47 43 41 41 42 42 43 44 45 47 47 48 50 51 51 51 51 51 50 49 47 45 43 40 37 34 32 31 31 30 29 28 28
56 58 60 64 67 72 72 72 66 57 49 45 42 42 43 44 45 46 47 49 50 52 53 54 55 55 55 54 54 53 51 50 48 46 44 41 37 34 33 32 32 33 32 32
58 59 61 64 67 71 72 69 59 51 46 43 42 42 44 46 47 49 51 52 54 56 57 57 57 57 56 55 54 53 52 50 49 47 46 44 42 40 37 35 34 35 36 36
57 58 61 64 68 72 70 61 52 46 42 41 42 44 46 48 50 52 54 56 57 58 58 58 57 56 54 52 51 49 48 47 46 45 44 44 43 43 42 41 40 38 38 39
57 59 62 65 68 70 64 55 47 42 41 42 44 46 48 51 54 55 57 57 58 58 56 54 51 50 48 48 47 47 46 46 44 42 41 40 40 40 41 43 44 44 43 43
57 59 62 64 67 68 60 50 44 42 43 44 47 49 52 54 56 57 57 58 58 54 50 47 46 46 46 47 47 48 48 47 46 44 41 39 37 35 35 37 41 44 46 47
56 59 61 64 67 65 57 48 43 42 44 47 50 53 55 56 57 57 58 56 50 45 43 43 44 45 47 48 49 49 49 48 47 45 43 40 37 35 34 32 33 36 40 45
56 58 60 64 67 63 54 46 43 43 46 50 52 55 56 56 57 58 54 46 41 40 41 43 45 46 48 49 51 51 51 50 49 46 44 41 38 35 32 31 30 30 31 35
56 58 60 64 65 60 51 45 43 45 48 51 54 55 56 57 57 52 43 38 38 40 42 44 46 47 49 51 53 54 54 53 51 48 45 42 39 36 33 30 29 28 28 28
56 58 60 64 63 57 50 46 45 47 50 52 54 55 56 56 50 41 36 36 38 41 43 45 47 49 51 53 55 56 56 54 52 50 47 44 41 38 35 32 30 29 28 28
55 57 61 64 62 55 49 45 46 48 51 53 54 55 55 51 41 34 34 36 38 40 43 45 48 51 53 56 57 57 57 56 54 52 49 47 44 41 37 34 32 31 30 29
54 57 61 62 59 52 47 45 46 48 51 53 54 54 51 42 34 33 34 36 37 40 43 47 50 53 56 58 59 59 58 56 54 53 51 49 46 42 39 36 34 32 31 30
54 57 60 61 57 50 46 45 46 48 51 52 53 51 44 34 31 31 33 35 38 42 45 48 51 54 57 59 61 61 59 58 58 57 55 52 48 44 40 36 34 32 31 30
54 57 59 58 54 49 45 44 46 48 50 51 51 45 36 29 28 29 31 34 37 41 44 48 51 54 58 60 61 62 62 62 61 59 57 53 49 45 41 37 34 31 28 27
53 56 58 57 52 47 44 44 46 48 50 50 47 39 30 26 26 28 31 34 37 41 45 48 51 54 57 59 62 64 63 62 61 60 58 56 52 48 44 39 34 29 24 21
53 56 57 54 50 45 43 43 45 47 48 47 42 33 26 24 25 27 31 34 38 42 45 48 51 53 56 59 63 63 61 60 61 60 61 61 59 55 50 43 36 29 23 18
53 55 55 52 47 43 41 42 45 46 47 44 37 28 23 22 23 27 31 35 38 41 44 47 49 52 55 58 61 62 58 57 58 59 62 64 64 63 58 52 44 35 27 20
52 54 53 49 44 40 40 41 43 45 44 40 32 24 21 21 23 27 31 35 38 41 44 46 47 50 53 56 59 60 58 56 55 57 59 62 64 65 64 61 55 48 39 32
51 52 49 45 40 38 38 40 42 43 42 37 27 20 18 20 23 27 31 35 38 41 42 44 44 47 51 53 56 58 58 56 54 55 56 58 60 61 62 63 62 60 55 50
50 50 46 41 37 36 37 39 41 41 39 32 23 17 17 19 23 27 31 34 37 39 40 41 42 44 48 51 53 56 58 58 54 53 54 56 57 58 58 58 59 59 58 57
48 47 42 37 34 34 36 38 39 39 36 28 20 15 15 18 23 27 31 33 36 38 38 38 38 40 44 48 50 53 56 58 57 54 53 54 55 56 56 56 56 55 54 53
46 43 38 33 32 32 34 36 38 37 33 25 17 13 14 17 22 26 29 32 34 36 37 36 36 37 41 45 48 50 53 55 57 57 56 55 54 53 54 54 54 54 53 52
Wind_Direction
335 334 334 335 333 331 331 331 330 330 329 328 326 326 327 329 329 330 330 330 330 331 332 332 331 329 327 325 324 322 321 318 316 312 308 306 305 305 306 306 302 292 276 261
336 335 334 335 334 333 332 331 332 331 331 330 330 331 332 332 331 332 333 333 334 334 334 333 331 329 327 325 323 321 320 318 317 314 309 304 301 300 300 301 297 288 275 262
338 336 336 336 335 333 332 333 334 333 334 335 336 336 335 335 335 335 336 337 337 336 335 333 331 329 326 324 322 320 319 318 317 316 312 306 299 296 294 292 291 284 274 265
338 337 337 337 334 334 334 335 336 335 337 338 337 337 337 336 336 338 339 338 337 336 334 332 330 327 325 323 321 320 318 316 315 315 313 309 302 294 289 285 282 278 271 264
338 337 337 336 336 335 335 336 337 337 339 338 337 338 336 337 337 338 338 337 336 334 332 330 327 325 323 321 319 317 315 313 312 311 310 308 302 295 287 280 275 271 266 262
337 335 336 337 336 335 336 337 338 339 340 340 340 340 339 338 338 337 336 334 333 331 329 327 325 323 321 319 317 315 313 310 308 305 304 302 299 293 287 279 272 267 263 258
337 336 336 337 336 336 336 339 340 341 342 341 341 340 339 337 336 335 333 332 330 329 327 325 324 322 320 318 316 314 312 309 305 302 299 296 293 289 284 279 271 265 260 256
337 336 336 336 335 337 338 340 341 343 344 343 342 339 337 335 334 332 331 330 329 327 326 325 324 323 322 321 319 317 314 311 307 302 297 293 288 284 280 275 271 265 259 255
336 335 335 335 336 337 339 340 342 345 346 345 343 339 336 334 333 331 330 329 328 328 327 327 327 327 328 328 328 327 324 321 316 310 303 296 290 283 277 272 268 264 260 256
335 334 335 336 336 338 341 341 343 345 345 344 341 338 336 334 332 331 331 330 330 330 331 333 335 338 340 341 341 340 338 336 332 326 319 310 300 291 282 274 268 264 260 257
335 334 334 335 336 339 341 340 340 342 342 341 340 338 336 334 333 333 333 332 333 335 339 344 347 349 350 350 349 348 346 344 342 339 334 328 319 308 297 285 276 268 261 257
334 333 333 335 337 340 340 338 338 339 339 339 338 337 336 335 335 335 335 336 340 346 351 353 354 353 353 352 351 350 348 346 344 342 340 337 332 325 316 305 293 281 271 263
333 332 333 334 337 339 339 336 335 336 337 338 338 338 338 337 337 337 338 344 351 355 356 355 355 354 354 353 352 351 349 347 345 343 341 339 335 331 326 319 311 301 289 277
332 331 333 335 338 339 337 334 334 335 336 337 338 339 338 338 338 341 347 355 357 357 357 357 357 356 355 354 353 352 351 349 347 345 343 340 336 332 328 323 318 312 304 296
331 331 333 336 338 338 336 334 333 335 337 338 339 340 339 340 342 349 356 359 359 359 360 360 359 358 357 356 355 354 352 351 350 348 345 341 337 333 328 323 318 313 308 303
330 331 334 336 338 338 336 333 334 336 338 339 340 340 341 342 348 356 0 2 2 2 2 1 0 359 359 357 356 356 355 354 352 350 347 343 338 333 328 322 317 311 306 302
330 332 334 337 338 337 335 333 334 336 338 340 341 341 343 347 355 1 3 4 4 4 3 2 2 1 0 359 358 358 357 355 353 351 349 345 341 335 329 323 317 311 305 299
330 332 335 337 337 336 335 334 335 337 339 341 342 343 347 354 0 3 4 5 4 4 3 3 3 2 1 1 0 360 359 359 358 357 354 349 345 340 335 329 322 314 307 299
330 332 335 336 336 335 334 335 337 338 340 342 343 346 351 358 3 6 7 6 5 4 3 4 3 2 2 2 2 2 4 5 4 2 359 356 352 348 343 337 330 322 313 304
329 332 334 336 336 335 335 336 338 339 341 343 345 348 354 1 6 7 6 5 4 3 4 4 4 4 4 4 5 7 9 10 9 9 7 6 3 359 354 349 343 336 327 316
329 332 334 335 335 335 335 337 339 340 342 344 346 351 358 4 7 6 5 3 2 2 3 3 5 5 5 7 9 10 12 14 14 15 16 16 15 12 9 5 1 355 349 339
328 332 334 334 334 335 336 338 340 341 343 345 348 353 360 5 6 5 3 2 1 1 2 4 6 7 8 10 11 13 14 15 16 18 21 23 23 23 22 21 19 16 14 10
328 331 333 333 333 334 336 338 340 342 344 346 349 355 2 5 4 2 1 360 0 2 4 5 7 9 11 13 14 15 16 17 18 21 24 27 28 30 31 32 34 35 36 37
328 331 332 332 332 334 336 339 341 342 344 346 350 356 2 3 2 0 359 360 2 4 5 7 9 12 13 14 16 17 19 20 21 24 27 30 31 33 35 38 41 45 48 51
328 330 331 331 332 333 336 339 341 342 344 346 350 355 1 1 0 359 359 1 4 5 6 8 11 14 16 16 18 20 22 23 24 26 30 32 33 35 37 39 42 46 50 53
327 329 330 330 331 333 335 339 340 342 343 345 348 353 358 359 358 358 360 3 5 6 8 10 13 16 18 19 20 22 24 26 27 28 31 33 35 36 38 40 42 45 47 50
327 328 328 328 329 332 335 338 340 341 342 343 345 349 355 356 357 359 2 5 6 8 10 12 14 18 20 21 21 23 26 28 29 31 33 35 36 37 39 41 42 45 46 48
Height
5782 5772 5763 5755 5744 5731 5718 5703 5689 5673 5657 5643 5629 5616 5605 5596 5587 5578 5570 5561 5552 5543 5535 5528 5521 5515 5509 5504 5498 5493 5487 5480 5474 5467 5461 5454 5448 5443 5438 5432 5428 5424 5422 5421
5775 5765 5755 5745 5734 5720 5707 5693 5678 5662 5649 5634 5620 5609 5599 5590 5581 5572 5563 5554 5546 5538 5531 5523 5517 5510 5504 5498 5492 5485 5478 5472 5465 5458 5452 5445 5440 5435 5430 5426 5422 5419 5417 5416
5768 5757 5747 5737 5724 5711 5696 5681 5667 5652 5638 5622 5611 5601 5593 5584 5575 5566 5558 5549 5541 5533 5525 5518 5511 5504 5497 5490 5483 5476 5469 5462 5455 5448 5442 5436 5431 5426 5422 5419 5416 5413 5411 5410
5760 5750 5738 5731 5715 5701 5685 5670 5655 5640 5626 5613 5603 5594 5586 5579 5570 5562 5553 5544 5536 5528 5520 5512 5505 5497 5489 5481 5474 5466 5459 5452 5445 5438 5432 5426 5421 5417 5413 5410 5408 5406 5404 5403
5751 5740 5730 5719 5705 5690 5676 5663 5647 5632 5621 5611 5601 5592 5583 5574 5565 5556 5548 5539 5530 5522 5514 5505 5497 5488 5480 5471 5463 5455 5448 5440 5434 5427 5421 5416 5411 5407 5403 5401 5399 5397 5396 5395
5742 5731 5720 5711 5696 5680 5667 5655 5639 5625 5614 5605 5596 5589 5580 5569 5560 5551 5543 5534 5525 5516 5507 5497 5488 5479 5469 5461 5452 5443 5435 5428 5421 5415 5409 5404 5400 5396 5392 5390 5388 5387 5386 5386
5734 5723 5712 5701 5687 5673 5661 5650 5632 5619 5608 5598 5589 5581 5573 5564 5555 5546 5537 5528 5518 5508 5498 5488 5478 5468 5458 5448 5439 5430 5421 5414 5407 5400 5395 5390 5386 5383 5380 5377 5375 5374 5374 5375
5725 5714 5706 5691 5678 5666 5653 5636 5623 5612 5601 5592 5584 5575 5567 5559 5550 5540 5531 5521 5511 5500 5489 5478 5467 5456 5446 5435 5425 5415 5406 5398 5391 5384 5379 5374 5370 5367 5365 5363 5361 5360 5360 5361
5718 5709 5696 5683 5670 5656 5642 5629 5617 5607 5597 5588 5580 5572 5563 5554 5544 5534 5524 5513 5502 5490 5478 5467 5455 5444 5434 5423 5413 5403 5393 5384 5375 5368 5361 5356 5352 5349 5347 5345 5344 5345 5345 5345
5709 5698 5686 5674 5661 5647 5634 5622 5611 5603 5594 5585 5576 5567 5558 5548 5538 5527 5516 5504 5493 5481 5469 5457 5446 5435 5425 5414 5404 5393 5383 5374 5364 5356 5348 5341 5335 5331 5329 5327 5326 5326 5327 5328
5702 5690 5678 5667 5654 5641 5628 5617 5607 5599 5590 5581 5572 5563 5553 5542 5531 5520 5508 5496 5484 5472 5461 5451 5441 5431 5420 5410 5399 5388 5378 5367 5357 5347 5338 5330 5322 5317 5312 5309 5307 5307 5308 5309
5695 5684 5673 5661 5648 5635 5623 5613 5604 5595 5586 5577 5567 5557 5547 5536 5524 5512 5501 5489 5477 5466 5457 5448 5438 5428 5418 5407 5396 5385 5374 5363 5352 5342 5332 5323 5314 5306 5300 5295 5292 5289 5288 5289
5688 5677 5667 5655 5642 5629 5618 5608 5600 5591 5582 5573 5562 5552 5541 5529 5518 5506 5494 5483 5474 5465 5456 5447 5437 5426 5416 5405 5393 5381 5369 5358 5346 5335 5325 5316 5308 5300 5293 5286 5280 5276 5273 5271
5680 5670 5659 5647 5635 5623 5612 5604 5595 5587 5578 5568 5557 5546 5535 5523 5511 5500 5489 5481 5473 5464 5455 5446 5435 5425 5414 5402 5390 5377 5365 5352 5340 5329 5318 5309 5300 5292 5285 5279 5272 5266 5262 5259
5673 5663 5652 5640 5628 5617 5607 5598 5590 5582 5572 5562 5551 5540 5529 5518 5506 5496 5488 5480 5472 5463 5454 5445 5435 5424 5412 5400 5387 5374 5360 5348 5335 5323 5312 5301 5292 5284 5276 5269 5263 5258 5253 5249
5665 5655 5645 5633 5622 5611 5602 5593 5585 5576 5567 5556 5546 5535 5524 5513 5504 5495 5488 5481 5473 5464 5455 5445 5434 5423 5411 5398 5385 5372 5357 5343 5330 5317 5306 5294 5284 5274 5266 5259 5253 5247 5242 5238
5658 5648 5637 5626 5615 5605 5597 5589 5580 5571 5562 5552 5541 5530 5520 5510 5502 5495 5488 5481 5473 5465 5455 5445 5434 5422 5410 5397 5383 5369 5355 5342 5328 5314 5300 5287 5276 5265 5256 5248 5242 5236 5231 5227
5651 5641 5631 5620 5610 5601 5593 5584 5576 5567 5558 5547 5537 5527 5517 5508 5502 5495 5488 5481 5473 5464 5454 5444 5433 5422 5410 5396 5382 5368 5353 5338 5322 5307 5293 5280 5267 5256 5246 5238 5230 5224 5219 5214
5644 5635 5625 5615 5605 5596 5588 5580 5572 5563 5553 5543 5533 5524 5515 5509 5503 5496 5490 5482 5474 5466 5456 5445 5435 5423 5410 5396 5382 5367 5350 5334 5319 5305 5290 5276 5262 5250 5238 5228 5220 5212 5207 5203
5638 5629 5619 5609 5599 5591 5583 5576 5567 5559 5549 5540 5530 5521 5514 5508 5503 5497 5490 5483 5475 5467 5457 5447 5436 5424 5412 5398 5383 5366 5350 5336 5322 5307 5291 5276 5261 5246 5233 5221 5211 5203 5198 5194
5631 5622 5612 5603 5594 5586 5579 5571 5563 5555 5546 5536 5528 5520 5514 5509 5503 5497 5491 5484 5476 5467 5458 5448 5437 5426 5414 5399 5384 5369 5355 5341 5327 5312 5296 5280 5263 5247 5232 5218 5207 5199 5193 5188
5624 5615 5606 5597 5589 5582 5575 5568 5560 5551 5542 5534 5526 5519 5514 5509 5504 5498 5492 5485 5477 5468 5459 5449 5439 5427 5415 5402 5388 5374 5360 5347 5334 5320 5303 5287 5270 5254 5238 5223 5210 5200 5193 5188
5617 5609 5600 5592 5584 5578 5571 5564 5556 5548 5540 5532 5525 5519 5514 5509 5504 5499 5493 5486 5478 5469 5460 5451 5441 5430 5419 5406 5394 5381 5367 5354 5341 5327 5312 5297 5282 5267 5251 5236 5222 5210 5201 5194
5611 5602 5594 5587 5580 5574 5568 5560 5553 5545 5537 5530 5524 5519 5515 5510 5505 5500 5493 5486 5478 5470 5461 5452 5443 5433 5423 5412 5400 5388 5374 5361 5349 5336 5322 5308 5295 5282 5268 5255 5242 5229 5218 5210
5604 5596 5588 5582 5576 5570 5564 5557 5550 5542 5535 5528 5523 5518 5515 5511 5506 5501 5494 5487 5479 5472 5463 5455 5446 5437 5428 5418 5407 5394 5382 5368 5356 5344 5332 5320 5307 5295 5284 5272 5261 5250 5240 5231
5597 5590 5583 5577 5572 5566 5561 5554 5547 5540 5533 5527 5522 5518 5515 5511 5506 5501 5495 5488 5481 5473 5466 5458 5450 5442 5433 5424 5413 5402 5390 5378 5366 5354 5342 5330 5319 5309 5298 5288 5278 5269 5260 5252
5591 5584 5578 5573 5568 5563 5557 5551 5544 5538 5531 5525 5521 5518 5514 5511 5507 5501 5496 5489 5483 5476 5469 5461 5454 5446 5438 5429 5420 5409 5398 5388 5377 5365 5353 5342 5332 5322 5312 5303 5294 5285 5277 5270